EST,Max TemperatureF,Mean TemperatureF,Min TemperatureF,Max Dew PointF,MeanDew PointF,Min DewpointF,Max Humidity, Mean Humidity, Min Humidity, Max Sea Level PressureIn, Mean Sea Level PressureIn, Min Sea Level PressureIn, Max VisibilityMiles, Mean VisibilityMiles, Min VisibilityMiles, Max Wind SpeedMPH, Mean Wind SpeedMPH, Max Gust SpeedMPH,PrecipitationIn, CloudCover, Events, WindDirDegrees
2014-1-1,4,-5,-15,0,-9,-20,95,73,51,30.57,30.40,30.17,10,10,8,14,6,17,0.00,3,,293
2014-1-2,-9,-11,-13,-16,-19,-23,78,64,50,30.55,30.35,30.16,10,4,1,22,14,25,T,8,Snow,43
2014-1-3,-5,-12,-19,-15,-19,-24,78,65,52,30.48,30.33,30.16,10,8,2,17,7,21,T,3,Snow,323
2014-1-4,31,6,-19,10,-4,-24,79,54,28,30.42,30.18,30.02,10,10,10,22,7,33,0.00,5,,206
2014-1-5,32,29,25,30,22,11,92,68,43,30.20,29.99,29.59,10,6,1,21,9,25,0.37,8,Rain-Snow,51
2014-1-6,45,30,15,40,21,3,100,77,53,29.59,29.44,29.20,10,5,0,40,15,54,0.69,8,Fog-Rain-Snow,248
2014-1-7,15,11,6,5,-5,-12,70,58,45,30.12,29.81,29.56,10,8,1,32,19,41,T,5,Snow,243
2014-1-8,18,13,7,6,1,-5,69,59,49,30.42,30.33,30.13,10,10,10,22,13,29,0.00,5,,229
2014-1-9,20,11,2,6,3,-3,87,68,49,30.67,30.56,30.42,10,10,10,13,6,16,0.00,2,,243
2014-1-10,32,17,2,26,14,-3,88,82,75,30.49,30.29,30.09,10,6,1,10,2,13,0.01,7,Snow,70
2014-1-11,51,38,25,46,34,21,96,89,81,30.06,29.47,29.13,10,4,1,32,9,41,0.22,8,Rain,95
2014-1-12,41,37,33,36,28,22,82,67,52,29.94,29.63,29.25,10,10,4,28,14,38,T,8,Rain-Snow,236
2014-1-13,49,47,45,31,26,22,75,59,42,29.96,29.79,29.65,10,10,10,17,10,23,T,3,,195
2014-1-14,47,39,31,39,35,22,100,77,53,29.83,29.72,29.64,10,7,0,22,7,27,0.04,8,Fog-Rain,235
2014-1-15,36,29,22,33,25,19,96,80,63,29.98,29.88,29.83,10,8,2,22,7,28,T,6,Rain-Snow,201
2014-1-16,33,28,22,23,20,15,88,69,49,30.03,29.97,29.94,10,9,5,9,4,13,T,6,Snow,212
2014-1-17,33,27,20,29,24,18,85,77,69,29.92,29.86,29.81,10,6,1,12,4,14,0.02,7,Snow,184
2014-1-18,33,23,12,27,22,9,96,83,69,29.86,29.79,29.74,10,5,1,12,3,15,0.01,6,Snow,258
2014-1-19,30,26,22,25,19,13,88,74,60,29.75,29.52,29.36,10,4,1,28,17,37,T,8,Snow,221
2014-1-20,22,4,-14,16,3,-18,83,69,54,30.11,29.67,29.45,10,5,1,17,8,21,0.02,7,Snow,310
2014-1-21,-3,-14,-26,-15,-22,-31,86,68,50,30.25,30.22,30.13,10,10,6,9,2,11,0.00,0,,294
2014-1-22,-3,-16,-30,-16,-25,-37,80,66,51,30.20,30.14,30.06,10,9,5,10,4,13,0.00,0,,232
2014-1-23,1,-7,-15,-11,-15,-19,81,67,53,30.33,30.22,30.11,10,10,9,15,8,18,0.00,1,,247
2014-1-24,18,1,-17,4,-8,-20,81,64,47,30.38,30.11,29.71,10,10,10,26,12,36,0.00,3,,209
2014-1-25,25,13,1,19,8,-9,74,62,49,29.68,29.39,29.26,10,5,0,31,17,38,T,7,Fog-Snow,231
2014-1-26,9,1,-8,2,-9,-17,83,66,49,29.82,29.71,29.49,10,8,2,21,9,29,T,5,Snow,220
2014-1-27,25,14,2,16,5,-14,88,64,39,30.05,29.57,29.28,10,4,0,37,12,48,0.08,6,Fog-Snow,259
2014-1-28,14,7,-1,6,-4,-17,73,58,42,30.25,30.16,30.06,10,7,0,30,16,37,T,4,Snow,218
2014-1-29,15,11,6,7,2,-5,76,67,58,30.19,30.01,29.91,10,6,0,31,16,40,T,6,Snow,219
2014-1-30,28,18,7,8,4,1,80,57,34,30.31,30.17,29.87,10,10,10,24,10,30,0.00,2,,198
2014-1-31,35,29,23,23,17,5,69,52,35,30.21,29.99,29.84,10,10,5,38,15,50,T,5,Snow,225